Location: Burjasot
(39.5167°N, 0.4167°W)
Time: 01:53:36
(UTC+02:00)

ISS - Pass Details

Date: 25 May 2019
Orbit: 407 x 418 km, 51.6° (Epoch: 27 June)

Event Time Altitude Azimuth Distance (km) Brightness Sun altitude
Rises 21:40:33 0° 277° (W) 2,344 1.4 -4.7°
Reaches altitude 10° 21:43:11 10° 299° (WNW) 1,487 1.0 -5.1°
Maximum altitude 21:45:25 17° 341° (NNW) 1,157 -0.7 -5.5°
Drops below altitude 10° 21:47:39 10° 23° (NNE) 1,495 -0.8 -5.8°
Sets 21:50:19 0° 45° (NE) 2,363 -0.1 -6.3°
